Regional Weather Roundup
Issued by NWS Newport/Morehead, NC

Current Version | Previous Version | Graphics & Text | Print | Product List | Glossary On
Versions: 1 2 3 4 5 6 7 8 9 10 11 12 13 14 15 16 17 18 19 20 21 22 23 24 25 26 27 28 29 30 31 32 33 34 35 36 37 38 39 40 41 42 43 44 45 46 47 48 49 50
000 ASUS42 KMHX 202222 RWRMHX WEATHER ROUNDUP FOR EASTERN NORTH CAROLINA NATIONAL WEATHER SERVICE NEWPORT/MOREHEAD CITY NC 600 PM EDT MON OCT 20 2014 NOTE: "FAIR" INDICATES FEW OR NO CLOUDS BELOW 12,000 FEET WITH NO SIGNIFICANT WEATHER AND/OR OBSTRUCTIONS TO VISIBILITY NCZ015>017-031-032-045>047-102-103-202300- NORTH COAST CITY SKY/WX TMP DP RH WIND PRES REMARKS EDENTON CLEAR 66 53 61 S8 30.00S ELIZABETH CITY CLEAR 68 50 52 S7 30.00F KITTY HAWK CLEAR 64 53 68 S5 30.01S MANTEO CLEAR 64 54 70 S6 30.02F $$ NCZ045>047-081-094-103-104-202300- CENTRAL COAST CITY SKY/WX TMP DP RH WIND PRES REMARKS FRISCO PTCLDY 67 56 67 SE6 30.03F SWANQUARTER N/A 66 N/A N/A SE8 29.97S $$ NCZ095-097-098-100-101-202300- SOUTHERN COAST CITY SKY/WX TMP DP RH WIND PRES REMARKS BEAUFORT PTCLDY 68 56 65 S5 30.02F CEDAR ISLAND N/A 66 N/A N/A S3 30.06S JACKSONVILLE CLEAR 68 56 65 S9 30.00F PINEY ISLAND PTCLDY 70 54 56 S5 30.02F WILMINGTON MOCLDY 70 57 63 S6 30.01S $$ NCZ011>013-027>030-043-044-078>080-089-090>093-098-202300- COASTAL PLAIN CITY SKY/WX TMP DP RH WIND PRES REMARKS AHOSKIE CLEAR 60 51 72 CALM 30.00S CLINTON PTCLDY 70 56 59 CALM 29.99F ELIZABETHTOWN MOCLDY 70 56 61 S3 29.99S GOLDSBORO CLEAR 70 55 60 SW6 29.97F GREENVILLE CLEAR 70 50 49 SW7 30.01S HAVELOCK MOCLDY 67 55 65 S6 30.03F KENANSVILLE PTCLDY 67 53 61 CALM 30.00S KINSTON CLEAR 70 52 52 S5 30.00F NEW BERN CLEAR 69 54 58 S9 30.02F RICHLANDS CLEAR 66 54 63 S5 30.01S ROCKY MOUNT CLEAR 67 51 56 S3 29.99F WASHINGTON CLEAR 67 53 61 S3 30.01R WHITEVILLE CLEAR 70 57 64 S5 30.00S $$ AMZ130-135-150-152-154-156-158-170-250-252-270-ANZ085-086-088-633-658-670-202300- MARINE OBSERVATIONS STATION/POSITION TIME TEMP WIND PRES WAVE SWELL AIR SEA DIR/SP/G HT/PER HT/PER (UTC) (F) (DEG/KT/KT) (MB) (FT/S) (FT/S) CHESAPEAKE LIGHT 2200 66 180/ 19/ 20 1015.9 64 E VA BEACH 2200 68 69 200/ 16/ 19 1016.2 3/11 2/11 DUCK 2200 67 68 170/ 11/ 14 1015.3 2 E DUCK 2200 N/A 3/13 2/13 10 NE DUCK 2200 71 N/A 3/12 2/12 OREGON INLET 2200 66 67 150/ 6/ 7 1016.6 13E OREGON INLT 2200 73 N/A 3/ 7 2/11 HATTERAS CG 2200 69 69 140/ 6/ 7 1017.1 DIAMOND BUOY 2200 72 170/ 16/ 19 1016.8 4/ 8 3/ 8 17 S OCRACOKE 2100 VRB 2/ 4 1017.1 CAPE LOOKOUT 2200 70 160/ 10/ 11 1016.4 BEAUFORT LAB 2200 69 70 170/ 6/ 8 1015.7 30 SE NEW RIVER 2200 71 77 150/ 10/ 12 1016.0 2/ 9 2/ 9 5 SE WRIGHTSVLE 2200 68 74 160/ 8/ 10 N/A 225 S CAPE HAT 2057 73 80 100/ 6/ 10 1018.2 3/ 9 3/ 9 41 SE CHARLESTON 2200 75 80 180/ 6/ 8 1015.4 3/ 9 2/ 9 $$

USA.gov is the U.S. government's official web portal to all federal, state and local government web resources and services.